AD8IZ-13 Weather Reports


time (UTC)temp
C
wind
direction
speed
KPH
gust
KPH
rain 1hr
cm
rain 24hr
cm
rain mn
cm
humidity
%
barometer
mb
20260502220517 8 354 4.8 11.3 0.00 0.00 0.00 62 1016.6
20260502215523 8 340 6.4 14.5 0.00 0.00 0.00 63 1016.4
20260502214520 8 346 4.8 8.0 0.00 0.00 0.00 57 1016.3
20260502213518 8 329 3.2 9.7 0.00 0.00 0.00 57 1016.3
20260502212518 8 352 3.2 11.3 0.00 0.00 0.00 59 1016.3
20260502211518 8 336 3.2 9.7 0.00 0.00 0.00 58 1016.2
20260502210518 8 341 3.2 8.0 0.00 0.00 0.00 60 1016.2
20260502205518 8 5 3.2 9.7 0.00 0.00 0.00 62 1016.2
20260502204519 8 336 4.8 11.3 0.00 0.00 0.00 61 1016.2
20260502203518 8 316 3.2 9.7 0.00 0.00 0.00 60 1016.2
20260502202519 8 334 3.2 11.3 0.00 0.00 0.00 62 1016.3
20260502201519 8 343 4.8 11.3 0.00 0.00 0.00 62 1016.4
20260502200519 8 335 4.8 11.3 0.00 0.00 0.00 62 1016.3
20260502195519 8 331 3.2 12.9 0.00 0.00 0.00 57 1016.2
20260502194516 9 332 3.2 8.0 0.00 0.00 0.00 56 1016.3
20260502193516 8 343 3.2 8.0 0.00 0.00 0.00 57 1016.4
20260502192520 8 321 3.2 14.5 0.00 0.00 0.00 58 1016.5
20260502191520 8 333 4.8 12.9 0.00 0.00 0.00 58 1016.6
20260502190520 9 337 4.8 14.5 0.00 0.00 0.00 57 1016.5
20260502185519 10 332 4.8 19.3 0.00 0.00 0.00 53 1016.4
20260502184517 10 329 3.2 9.7 0.00 0.00 0.00 53 1016.4
20260502183518 9 347 1.6 8.0 0.00 0.00 0.00 57 1016.6
20260502182517 8 322 1.6 9.7 0.00 0.00 0.00 59 1016.7
20260502181518 8 328 4.8 11.3 0.00 0.00 0.00 58 1016.7
20260502180518 8 330 4.8 12.9 0.00 0.00 0.00 58 1016.8
20260502170519 9 336 3.2 11.3 0.00 0.00 0.00 56 1016.8
20260502163519 8 317 4.8 12.9 0.00 0.00 0.00 60 1017.1
20260502162518 8 342 6.4 14.5 0.00 0.00 0.00 61 1017.2
20260502161518 8 337 4.8 14.5 0.00 0.00 0.00 59 1017.2
20260502160517 8 343 6.4 12.9 0.00 0.03 0.00 61 1017.3
20260502151518 8 343 4.8 11.3 0.00 0.15 0.00 62 1017.3
20260502150518 8 324 6.4 12.9 0.00 0.15 0.00 61 1017.3
20260502130518 3 333 4.8 14.5 0.00 0.30 0.00 83 1017.7
20260502123518 2 345 4.8 12.9 0.00 0.30 0.00 94 1017.6
20260502122518 1 354 6.4 12.9 0.00 0.33 0.00 98 1017.5
20260502121518 1 358 4.8 8.0 0.00 0.33 0.00 99 1017.5
20260502120518 1 349 4.8 11.3 0.00 0.33 0.00 99 1017.4
20260502115518 1 7 4.8 12.9 0.00 0.33 0.00 99 1017.3
20260502114518 1 14 4.8 6.4 0.00 0.33 0.00 99 1017.3
20260502113519 0 11 4.8 4.8 0.00 0.33 0.00 99 1017.4
20260502112519 -1 4 3.2 4.8 0.00 0.33 0.00 99 1017.4
20260502111522 -1 8 4.8 4.8 0.00 0.33 0.00 99 1017.4
20260502110520 -1 6 4.8 4.8 0.00 0.33 0.00 99 1017.3
20260502105519 -1 5 4.8 4.8 0.00 0.33 0.00 99 1017.3
20260502104519 -1 7 3.2 4.8 0.00 0.33 0.00 99 1017.2
20260502103516 -1 4 4.8 4.8 0.00 0.33 0.00 99 1017.2
20260502102518 -1 4 4.8 4.8 0.00 0.33 0.00 99 1017.3
20260502101518 -1 7 3.2 4.8 0.00 0.33 0.00 99 1017.2
20260502100520 -1 6 4.8 4.8 0.00 0.33 0.00 99 1017.2
20260502091518 -1 8 3.2 4.8 0.00 0.33 0.00 99 1017.3
20260502090518 0 4 3.2 4.8 0.00 0.33 0.00 99 1017.2
20260502071520 0 4 4.8 4.8 0.00 0.33 0.00 99 1016.9
20260502070517 0 8 3.2 4.8 0.00 0.33 0.00 99 1017.0
20260502065517 0 18 3.2 4.8 0.00 0.33 0.00 99 1017.1
20260502064519 1 13 3.2 4.8 0.00 0.33 0.00 99 1017.2
20260502063520 1 22 3.2 4.8 0.00 0.33 0.00 99 1017.1
20260502062518 1 60 1.6 3.2 0.00 0.33 0.00 99 1017.1
20260502061518 1 132 1.6 4.8 0.00 0.33 0.00 99 1017.3
20260502060518 1 16 3.2 6.4 0.00 0.33 0.00 98 1017.3
20260502055518 1 30 3.2 4.8 0.00 0.33 0.00 98 1017.3
20260502054518 1 20 3.2 4.8 0.00 0.33 0.00 98 1017.4
20260502053518 1 10 3.2 4.8 0.00 0.33 0.00 98 1017.4
20260502052520 2 15 3.2 4.8 0.00 0.33 0.00 98 1017.3
20260502051519 2 43 3.2 4.8 0.00 0.33 0.00 98 1017.3
20260502050520 2 32 3.2 4.8 0.00 0.33 0.00 98 1017.3
20260502045519 2 4 3.2 4.8 0.00 0.33 0.00 97 1017.2
20260502044516 2 127 1.6 4.8 0.00 0.33 0.00 97 1017.2
20260502043517 2 71 1.6 4.8 0.00 0.33 0.00 97 1017.2
20260502042519 2 16 3.2 4.8 0.00 0.33 0.00 97 1017.2
20260502041521 2 29 3.2 4.8 0.00 0.33 0.00 96 1017.3
20260502040517 2 26 4.8 4.8 0.00 0.33 0.00 96 1017.2
20260502035517 2 183 1.6 3.2 0.00 0.33 0.33 96 1017.2
20260502034517 2 31 3.2 4.8 0.00 0.33 0.33 95 1017.1
20260502033521 3 31 3.2 6.4 0.00 0.33 0.33 95 1017.2
20260502032518 3 39 3.2 4.8 0.00 0.33 0.33 94 1017.3
20260502031518 3 131 1.6 4.8 0.00 0.33 0.33 93 1017.3
20260502030518 3 23 3.2 4.8 0.00 0.33 0.33 93 1017.4
20260502025519 4 188 1.6 3.2 0.00 0.33 0.33 92 1017.3
20260502024519 4 1 3.2 4.8 0.00 0.33 0.33 91 1017.2
20260502023518 5 43 3.2 4.8 0.00 0.33 0.33 90 1017.1
20260502022518 5 345 0.0 3.2 0.00 0.33 0.33 88 1017.0
20260502021518 5 0.0 0.0 0.00 0.33 0.33 87 1016.9
20260502020518 6 0.0 0.0 0.00 0.33 0.33 87 1016.8
20260502015519 6 0.0 0.0 0.00 0.33 0.33 86 1016.7
20260502014519 6 137 0.0 3.2 0.00 0.33 0.33 86 1016.6
20260502013516 6 3 1.6 4.8 0.00 0.33 0.33 84 1016.5
20260502012519 7 40 1.6 6.4 0.00 0.33 0.33 84 1016.2
20260502011522 7 1 1.6 9.7 0.00 0.33 0.33 83 1015.8
20260502010520 7 27 1.6 8.0 0.00 0.33 0.33 83 1015.5
20260502005517 7 348 1.6 8.0 0.00 0.33 0.33 83 1015.6
20260502004517 7 0.0 0.0 0.00 0.33 0.33 82 1015.5
20260502003517 7 44 1.6 4.8 0.00 0.33 0.33 80 1015.5
20260502002518 7 97 1.6 3.2 0.00 0.33 0.33 78 1015.5
20260502001522 8 360 1.6 4.8 0.00 0.33 0.33 77 1015.4
20260502000518 8 356 3.2 6.4 0.00 0.33 0.33 77 1015.2
20260501235518 8 358 3.2 6.4 0.00 0.33 0.33 75 1015.0
20260501234518 8 354 0.0 4.8 0.00 0.33 0.33 76 1014.8
20260501233518 8 6 1.6 4.8 0.00 0.33 0.33 76 1014.8
20260501232518 8 12 1.6 4.8 0.00 0.33 0.33 75 1014.7
20260501231518 8 343 1.6 8.0 0.00 0.33 0.33 75 1014.6
20260501230520 8 337 3.2 8.0 0.00 0.33 0.33 74 1014.6
20260501225519 9 342 1.6 4.8 0.00 0.33 0.33 75 1014.6
20260501224524 9 326 3.2 8.0 0.00 0.33 0.33 74 1014.6
20260501223520 10 313 1.6 8.0 0.00 0.33 0.33 74 1014.5
20260501222519 10 303 1.6 4.8 0.00 0.33 0.33 74 1014.5
20260501221517 9 327 3.2 9.7 0.00 0.33 0.33 77 1014.6